"read_dt","SO2 (ppb)","flags","PMT voltage (V)","lamp voltage (V)","lamp intensity (Hz)","internal temp (C)","react chamber temp (C)","sample flow (l/min)","pres (mmHg)","SO2 bkg (ppb)","SO2 coefficient"
2015-02-16 00:00:00,1999E-3,5C000000,-0724,0837,12121,027.6,045.5,0.452,739.0,01.18,0.508
2015-02-16 00:01:00,2005E-3,5C000000,-0724,0838,12007,027.7,045.4,0.452,738.9,01.18,0.508
2015-02-16 00:02:00,2045E-3,5C000000,-0724,0837,11833,027.7,045.4,0.452,738.9,01.18,0.508
2015-02-16 00:03:00,1992E-3,5C000000,-0724,0837,12133,027.7,045.4,0.452,738.9,01.18,0.508
2015-02-16 00:04:00,2016E-3,5C000000,-0724,0838,12085,027.7,045.4,0.452,739.0,01.18,0.508
2015-02-16 00:05:00,2063E-3,5C000000,-0724,0838,12140,027.7,045.4,0.452,739.0,01.18,0.508
2015-02-16 00:06:00,2039E-3,5C000000,-0724,0837,12062,027.7,045.5,0.452,739.0,01.18,0.508
2015-02-16 00:07:00,2027E-3,5C000000,-0724,0838,12236,027.6,045.4,0.452,739.0,01.18,0.508
2015-02-16 00:08:00,2171E-3,5C000000,-0724,0837,12083,027.6,045.4,0.452,739.0,01.18,0.508
2015-02-16 00:09:00,2051E-3,5C000000,-0724,0837,12121,027.6,045.4,0.452,738.9,01.18,0.508
2015-02-16 00:10:00,1956E-3,5C000000,-0724,0837,11847,027.5,045.4,0.451,739.0,01.18,0.508
2015-02-16 00:11:00,2124E-3,5C000000,-0724,0837,12107,027.3,045.4,0.451,739.0,01.18,0.508
2015-02-16 00:12:00,1889E-3,5C000000,-0724,0838,12165,027.1,045.4,0.452,739.0,01.18,0.508
2015-02-16 00:13:00,2035E-3,5C000000,-0724,0836,11955,027.0,045.4,0.452,739.0,01.18,0.508
2015-02-16 00:14:00,1962E-3,5C000000,-0724,0837,12109,026.8,045.4,0.452,739.0,01.18,0.508
2015-02-16 00:15:00,1998E-3,5C000000,-0724,0836,12155,026.7,045.4,0.453,739.0,01.18,0.508
2015-02-16 00:16:00,1990E-3,5C000000,-0724,0836,11942,026.6,045.4,0.453,739.0,01.18,0.508
2015-02-16 00:17:00,2029E-3,5C000000,-0724,0837,12134,026.5,045.4,0.452,739.0,01.18,0.508
2015-02-16 00:18:00,2063E-3,5C000000,-0724,0836,12057,026.5,045.4,0.453,739.0,01.18,0.508
2015-02-16 00:19:00,1969E-3,5C000000,-0724,0837,12206,026.5,045.4,0.453,739.0,01.18,0.508
2015-02-16 00:20:00,2051E-3,5C000000,-0724,0836,12146,026.5,045.4,0.453,739.0,01.18,0.508
2015-02-16 00:21:00,1960E-3,5C000000,-0724,0837,12228,026.6,045.4,0.453,739.0,01.18,0.508
2015-02-16 00:22:00,2017E-3,5C000000,-0724,0836,12037,026.7,045.4,0.453,738.9,01.18,0.508
2015-02-16 00:23:00,1987E-3,5C000000,-0724,0835,12141,026.8,045.4,0.453,738.9,01.18,0.508
2015-02-16 00:24:00,2065E-3,5C000000,-0724,0837,12082,026.8,045.4,0.453,738.9,01.18,0.508
2015-02-16 00:25:00,2195E-3,5C000000,-0724,0836,12150,026.9,045.4,0.453,738.9,01.18,0.508
2015-02-16 00:26:00,2246E-3,5C000000,-0724,0836,12242,027.0,045.4,0.452,738.9,01.18,0.508
2015-02-16 00:27:00,2083E-3,5C000000,-0724,0838,12310,027.0,045.4,0.452,738.9,01.18,0.508
2015-02-16 00:28:00,2048E-3,5C000000,-0724,0837,12047,027.1,045.4,0.453,738.9,01.18,0.508
2015-02-16 00:29:00,1999E-3,5C000000,-0724,0837,12255,027.1,045.4,0.453,738.9,01.18,0.508
2015-02-16 00:30:00,2160E-3,5C000000,-0724,0837,12148,027.2,045.4,0.453,738.9,01.18,0.508
2015-02-16 00:31:00,1938E-3,5C000000,-0724,0836,12182,027.2,045.4,0.452,738.9,01.18,0.508
2015-02-16 00:32:00,2208E-3,5C000000,-0724,0837,11989,027.3,045.4,0.452,738.9,01.18,0.508
2015-02-16 00:33:00,2020E-3,5C000000,-0724,0837,12203,027.3,045.4,0.452,739.0,01.18,0.508
2015-02-16 00:34:00,2109E-3,5C000000,-0724,0836,12127,027.3,045.4,0.452,739.0,01.18,0.508
2015-02-16 00:35:00,2168E-3,5C000000,-0724,0836,12117,027.4,045.4,0.452,739.0,01.18,0.508
2015-02-16 00:36:00,1971E-3,5C000000,-0724,0836,11920,027.4,045.5,0.452,739.0,01.18,0.508
2015-02-16 00:37:00,1977E-3,5C000000,-0724,0838,12320,027.4,045.4,0.452,739.0,01.18,0.508
2015-02-16 00:38:00,2099E-3,5C000000,-0724,0836,12234,027.4,045.4,0.452,739.0,01.18,0.508
2015-02-16 00:39:00,2172E-3,5C000000,-0724,0837,12218,027.5,045.4,0.452,739.0,01.18,0.508
2015-02-16 00:40:00,2094E-3,5C000000,-0724,0836,12213,027.5,045.4,0.452,739.1,01.18,0.508
2015-02-16 00:41:00,2100E-3,5C000000,-0724,0836,12019,027.5,045.4,0.452,739.1,01.18,0.508
2015-02-16 00:42:00,2153E-3,5C000000,-0724,0837,12307,027.5,045.4,0.452,739.1,01.18,0.508
2015-02-16 00:43:00,2003E-3,5C000000,-0724,0837,12033,027.6,045.5,0.451,739.1,01.18,0.508
2015-02-16 00:44:00,1989E-3,5C000000,-0724,0837,12154,027.6,045.5,0.452,739.1,01.18,0.508
2015-02-16 00:45:00,1907E-3,5C000000,-0724,0837,12215,027.6,045.5,0.452,739.0,01.18,0.508
2015-02-16 00:46:00,2004E-3,5C000000,-0724,0836,12101,027.6,045.4,0.452,739.0,01.18,0.508
2015-02-16 00:47:00,2013E-3,5C000000,-0724,0837,12200,027.6,045.4,0.452,739.1,01.18,0.508
2015-02-16 00:48:00,2098E-3,5C000000,-0724,0837,12056,027.6,045.4,0.451,739.0,01.18,0.508
2015-02-16 00:49:00,2103E-3,5C000000,-0724,0837,12169,027.6,045.5,0.452,739.0,01.18,0.508
2015-02-16 00:50:00,2046E-3,5C000000,-0724,0837,12237,027.7,045.5,0.452,739.0,01.18,0.508
2015-02-16 00:51:00,2000E-3,5C000000,-0724,0836,12039,027.8,045.4,0.451,739.0,01.18,0.508
2015-02-16 00:52:00,2043E-3,5C000000,-0724,0837,12120,027.8,045.4,0.452,739.0,01.18,0.508
2015-02-16 00:53:00,2059E-3,5C000000,-0724,0837,12052,027.8,045.4,0.452,739.0,01.18,0.508
2015-02-16 00:54:00,2034E-3,5C000000,-0724,0837,12174,027.8,045.4,0.452,739.0,01.18,0.508
2015-02-16 00:55:00,2039E-3,5C000000,-0724,0836,12054,027.7,045.4,0.452,739.0,01.18,0.508
2015-02-16 00:56:00,2120E-3,5C000000,-0724,0837,12023,027.8,045.4,0.452,739.0,01.18,0.508
2015-02-16 00:57:00,2065E-3,5C000000,-0724,0836,12078,027.8,045.5,0.452,739.0,01.18,0.508
2015-02-16 00:58:00,2124E-3,5C000000,-0724,0837,12057,027.8,045.4,0.452,739.0,01.18,0.508
2015-02-16 00:59:00,1991E-3,5C000000,-0724,0836,12008,027.8,045.4,0.452,739.0,01.18,0.508
2015-02-16 01:00:00,1986E-3,5C000000,-0724,0837,12080,027.8,045.4,0.452,739.0,01.18,0.508
2015-02-16 01:01:00,2032E-3,5C000000,-0724,0837,12160,027.8,045.4,0.452,739.0,01.18,0.508
2015-02-16 01:02:00,2079E-3,5C000000,-0724,0837,12128,027.8,045.4,0.452,739.0,01.18,0.508
2015-02-16 01:03:00,2083E-3,5C000000,-0724,0837,12190,027.8,045.5,0.451,739.0,01.18,0.508
2015-02-16 01:04:00,2041E-3,5C000000,-0724,0837,12102,027.8,045.4,0.451,739.1,01.18,0.508
2015-02-16 01:05:00,2052E-3,5C000000,-0724,0835,12129,027.8,045.4,0.451,739.1,01.18,0.508
2015-02-16 01:06:00,1975E-3,5C000000,-0724,0837,12249,027.8,045.4,0.451,739.1,01.18,0.508
2015-02-16 01:07:00,2004E-3,5C000000,-0724,0837,12069,027.8,045.5,0.452,739.1,01.18,0.508
2015-02-16 01:08:00,2010E-3,5C000000,-0724,0837,11947,027.8,045.4,0.452,739.1,01.18,0.508
2015-02-16 01:09:00,2031E-3,5C000000,-0724,0837,12215,027.8,045.4,0.452,739.1,01.18,0.508
"read_dt","SO2 (ppb)","flags","PMT voltage (V)","lamp voltage (V)","lamp intensity (Hz)","internal temp (C)","react chamber temp (C)","sample flow (l/min)","pres (mmHg)","SO2 bkg (ppb)","SO2 coefficient"
2015-02-16 01:11:00,1990E-3,5C000000,-0724,0838,12149,027.8,045.4,0.451,739.1,01.18,0.508
2015-02-16 01:12:00,1982E-3,5C000000,-0724,0837,12282,027.8,045.4,0.451,739.1,01.18,0.508
2015-02-16 01:13:00,2036E-3,5C000000,-0724,0836,12252,027.8,045.4,0.452,739.2,01.18,0.508
2015-02-16 01:14:00,2089E-3,5C000000,-0724,0836,12182,027.7,045.4,0.452,739.2,01.18,0.508
2015-02-16 01:15:00,2183E-3,5C000000,-0724,0837,12279,027.6,045.4,0.451,739.2,01.18,0.508
2015-02-16 01:16:00,2114E-3,5C000000,-0724,0837,12252,027.5,045.4,0.452,739.2,01.18,0.508
2015-02-16 01:17:00,1949E-3,5C000000,-0724,0837,12284,027.5,045.4,0.452,739.2,01.18,0.508
2015-02-16 01:18:00,1953E-3,5C000000,-0724,0837,12055,027.4,045.4,0.452,739.2,01.18,0.508
2015-02-16 01:19:00,1917E-3,5C000000,-0724,0836,12207,027.4,045.4,0.452,739.1,01.18,0.508
2015-02-16 01:20:00,2139E-3,5C000000,-0724,0837,12223,027.4,045.4,0.452,739.1,01.18,0.508
2015-02-16 01:21:00,2010E-3,5C000000,-0724,0837,12120,027.3,045.4,0.452,739.1,01.18,0.508
2015-02-16 01:22:00,2005E-3,5C000000,-0724,0837,12136,027.3,045.4,0.453,739.1,01.18,0.508
2015-02-16 01:23:00,2029E-3,5C000000,-0724,0836,12162,027.3,045.4,0.452,739.0,01.18,0.508
2015-02-16 01:24:00,2027E-3,5C000000,-0724,0837,12206,027.2,045.4,0.453,739.0,01.18,0.508
2015-02-16 01:25:00,1931E-3,5C000000,-0724,0836,12165,027.0,045.4,0.453,739.1,01.18,0.508
2015-02-16 01:26:00,2012E-3,5C000000,-0724,0837,12213,026.8,045.4,0.452,739.1,01.18,0.508
2015-02-16 01:27:00,1980E-3,5C000000,-0724,0837,12079,026.7,045.4,0.453,739.1,01.18,0.508
2015-02-16 01:28:00,2032E-3,5C000000,-0724,0836,12180,026.6,045.4,0.452,739.1,01.18,0.508
2015-02-16 01:29:00,2010E-3,5C000000,-0724,0836,12226,026.5,045.4,0.453,739.2,01.18,0.508
2015-02-16 01:30:00,2020E-3,5C000000,-0724,0836,12159,026.4,045.4,0.453,739.2,01.18,0.508
2015-02-16 01:31:00,2081E-3,5C000000,-0724,0836,12156,026.3,045.4,0.453,739.2,01.18,0.508
2015-02-16 01:32:00,2024E-3,5C000000,-0724,0836,12086,026.1,045.4,0.453,739.2,01.18,0.508
2015-02-16 01:33:00,2217E-3,5C000000,-0724,0836,12104,026.1,045.4,0.454,739.3,01.18,0.508
2015-02-16 01:34:00,2087E-3,5C000000,-0724,0836,12081,025.9,045.4,0.453,739.3,01.18,0.508
2015-02-16 01:35:00,1983E-3,5C000000,-0724,0836,12164,025.9,045.4,0.453,739.3,01.18,0.508
2015-02-16 01:36:00,1948E-3,5C000000,-0724,0836,12223,025.7,045.4,0.454,739.3,01.18,0.508
2015-02-16 01:37:00,1957E-3,5C000000,-0724,0836,12143,025.7,045.4,0.454,739.3,01.18,0.508
2015-02-16 01:38:00,2118E-3,5C000000,-0724,0837,12197,025.6,045.4,0.454,739.4,01.18,0.508
2015-02-16 01:39:00,2038E-3,5C000000,-0724,0836,12186,025.5,045.3,0.454,739.4,01.18,0.508
2015-02-16 01:40:00,2014E-3,5C000000,-0724,0836,12145,025.5,045.4,0.454,739.3,01.18,0.508
2015-02-16 01:41:00,2121E-3,5C000000,-0724,0836,12254,025.5,045.4,0.455,739.4,01.18,0.508
2015-02-16 01:42:00,2049E-3,5C000000,-0724,0836,12313,025.4,045.4,0.455,739.4,01.18,0.508
2015-02-16 01:43:00,2098E-3,5C000000,-0724,0834,12205,025.4,045.4,0.455,739.4,01.18,0.508
2015-02-16 01:44:00,2056E-3,5C000000,-0724,0837,11893,025.4,045.4,0.455,739.4,01.18,0.508
2015-02-16 01:45:00,2175E-3,5C000000,-0724,0836,12339,025.4,045.4,0.454,739.4,01.18,0.508
2015-02-16 01:46:00,2154E-3,5C000000,-0724,0836,12235,025.4,045.4,0.455,739.4,01.18,0.508
2015-02-16 01:47:00,2043E-3,5C000000,-0724,0835,12186,025.4,045.3,0.455,739.4,01.18,0.508
2015-02-16 01:48:00,1973E-3,5C000000,-0724,0836,12168,025.6,045.4,0.455,739.3,01.18,0.508
2015-02-16 01:49:00,2096E-3,5C000000,-0724,0836,12173,025.8,045.4,0.455,739.3,01.18,0.508
2015-02-16 01:50:00,2056E-3,5C000000,-0724,0837,12224,025.9,045.4,0.455,739.3,01.18,0.508
2015-02-16 01:51:00,2070E-3,5C000000,-0724,0836,12154,026.0,045.4,0.455,739.3,01.18,0.508
2015-02-16 01:52:00,1949E-3,5C000000,-0724,0837,12075,026.2,045.4,0.455,739.3,01.18,0.508
2015-02-16 01:53:00,2010E-3,5C000000,-0724,0837,12259,026.5,045.4,0.455,739.3,01.18,0.508
2015-02-16 01:54:00,2095E-3,5C000000,-0724,0835,12025,026.7,045.4,0.454,739.4,01.18,0.508
2015-02-16 01:55:00,2086E-3,5C000000,-0724,0836,12200,026.9,045.4,0.454,739.3,01.18,0.508
2015-02-16 01:56:00,2145E-3,5C000000,-0724,0837,12229,027.1,045.4,0.453,739.3,01.18,0.508
2015-02-16 01:57:00,1946E-3,5C000000,-0724,0837,12126,027.3,045.4,0.453,739.3,01.18,0.508
2015-02-16 01:58:00,2044E-3,5C000000,-0724,0837,12123,027.5,045.4,0.452,739.3,01.18,0.508
2015-02-16 01:59:00,2008E-3,5C000000,-0724,0837,12055,027.7,045.4,0.452,739.3,01.18,0.508
2015-02-16 02:00:00,1980E-3,5C000000,-0724,0837,12103,027.8,045.4,0.452,739.3,01.18,0.508
2015-02-16 02:01:00,2141E-3,5C000000,-0724,0838,12057,027.9,045.4,0.452,739.3,01.18,0.508
2015-02-16 02:02:00,2023E-3,5C000000,-0724,0837,11988,028.0,045.4,0.451,739.3,01.18,0.508
2015-02-16 02:03:00,2053E-3,5C000000,-0724,0837,12221,028.0,045.4,0.452,739.3,01.18,0.508
2015-02-16 02:04:00,2028E-3,5C000000,-0724,0837,12043,028.1,045.4,0.451,739.3,01.18,0.508
2015-02-16 02:05:00,2019E-3,5C000000,-0724,0837,12039,028.1,045.4,0.451,739.3,01.18,0.508
2015-02-16 02:06:00,2015E-3,5C000000,-0724,0836,12108,028.1,045.4,0.451,739.3,01.18,0.508
2015-02-16 02:07:00,2030E-3,5C000000,-0724,0837,12025,028.1,045.4,0.451,739.3,01.18,0.508
2015-02-16 02:08:00,1993E-3,5C000000,-0724,0838,12180,028.1,045.4,0.451,739.3,01.18,0.508
2015-02-16 02:09:00,2107E-3,5C000000,-0724,0837,12055,028.0,045.4,0.451,739.3,01.18,0.508
2015-02-16 02:10:00,2099E-3,5C000000,-0724,0837,12154,028.0,045.5,0.451,739.3,01.18,0.508
2015-02-16 02:11:00,2061E-3,5C000000,-0724,0836,12030,027.9,045.5,0.451,739.3,01.18,0.508
2015-02-16 02:12:00,2101E-3,5C000000,-0724,0836,12171,027.7,045.4,0.451,739.3,01.18,0.508
2015-02-16 02:13:00,2155E-3,5C000000,-0724,0836,12222,027.6,045.4,0.451,739.3,01.18,0.508
2015-02-16 02:14:00,2001E-3,5C000000,-0724,0836,12205,027.4,045.4,0.452,739.3,01.18,0.508
2015-02-16 02:15:00,2046E-3,5C000000,-0724,0835,12125,027.4,045.4,0.452,739.3,01.18,0.508
2015-02-16 02:16:00,2277E-3,5C000000,-0724,0836,12163,027.3,045.4,0.452,739.3,01.18,0.508
2015-02-16 02:17:00,2066E-3,5C000000,-0724,0836,12243,027.1,045.4,0.452,739.3,01.18,0.508
2015-02-16 02:18:00,1945E-3,5C000000,-0724,0836,12113,027.0,045.4,0.452,739.3,01.18,0.508
2015-02-16 02:19:00,2086E-3,5C000000,-0724,0836,12103,026.9,045.4,0.452,739.3,01.18,0.508
2015-02-16 02:20:00,2139E-3,5C000000,-0724,0836,12215,026.8,045.4,0.452,739.3,01.18,0.508
2015-02-16 02:21:00,2012E-3,5C000000,-0724,0836,12079,026.7,045.4,0.453,739.2,01.18,0.508
2015-02-16 02:22:00,2000E-3,5C000000,-0724,0836,12060,026.6,045.4,0.453,739.2,01.18,0.508
2015-02-16 02:23:00,2084E-3,5C000000,-0724,0835,11967,026.6,045.4,0.453,739.2,01.18,0.508
2015-02-16 02:24:00,2020E-3,5C000000,-0724,0835,12233,026.5,045.4,0.453,739.2,01.18,0.508
2015-02-16 02:25:00,1991E-3,5C000000,-0724,0835,12244,026.4,045.4,0.453,739.2,01.18,0.508
2015-02-16 02:26:00,2020E-3,5C000000,-0724,0835,12232,026.3,045.4,0.454,739.2,01.18,0.508
2015-02-16 02:27:00,2006E-3,5C000000,-0724,0837,12099,026.3,045.4,0.453,739.3,01.18,0.508
2015-02-16 02:28:00,2070E-3,5C000000,-0724,0836,12063,026.2,045.4,0.453,739.3,01.18,0.508
2015-02-16 02:29:00,2229E-3,5C000000,-0724,0836,12108,026.1,045.4,0.454,739.3,01.18,0.508
2015-02-16 02:30:00,2025E-3,5C000000,-0724,0836,12193,026.1,045.4,0.453,739.3,01.18,0.508
2015-02-16 02:31:00,2124E-3,5C000000,-0724,0837,12145,026.1,045.4,0.453,739.3,01.18,0.508
2015-02-16 02:32:00,1919E-3,5C000000,-0724,0837,12277,026.0,045.4,0.454,739.3,01.18,0.508
2015-02-16 02:33:00,2091E-3,5C000000,-0724,0835,12199,026.0,045.4,0.454,739.3,01.18,0.508
2015-02-16 02:34:00,2018E-3,5C000000,-0724,0836,12114,026.0,045.4,0.454,739.3,01.18,0.508
2015-02-16 02:35:00,2089E-3,5C000000,-0724,0836,12170,025.9,045.4,0.454,739.3,01.18,0.508
2015-02-16 02:36:00,2034E-3,5C000000,-0724,0836,12257,025.9,045.4,0.454,739.3,01.18,0.508
2015-02-16 02:37:00,1932E-3,5C000000,-0724,0836,12223,025.8,045.4,0.454,739.3,01.18,0.508
2015-02-16 02:38:00,2007E-3,5C000000,-0724,0836,12095,025.8,045.4,0.454,739.2,01.18,0.508
2015-02-16 02:39:00,2177E-3,5C000000,-0724,0836,12117,025.8,045.4,0.454,739.2,01.18,0.508
2015-02-16 02:40:00,2071E-3,5C000000,-0724,0837,12187,025.8,045.4,0.454,739.2,01.18,0.508
2015-02-16 02:41:00,2106E-3,5C000000,-0724,0836,12070,025.8,045.4,0.454,739.2,01.18,0.508
2015-02-16 02:42:00,1960E-3,5C000000,-0724,0836,12273,025.8,045.4,0.454,739.2,01.18,0.508
2015-02-16 02:43:00,2063E-3,5C000000,-0724,0836,12144,025.8,045.4,0.454,739.2,01.18,0.508
2015-02-16 02:44:00,2020E-3,5C000000,-0724,0836,12024,025.7,045.4,0.454,739.2,01.18,0.508
2015-02-16 02:45:00,1940E-3,5C000000,-0724,0836,12218,025.7,045.4,0.454,739.2,01.18,0.508
2015-02-16 02:46:00,2128E-3,5C000000,-0724,0836,12083,025.7,045.4,0.454,739.2,01.18,0.508
2015-02-16 02:47:00,1920E-3,5C000000,-0724,0835,12110,025.6,045.4,0.454,739.2,01.18,0.508
2015-02-16 02:48:00,1884E-3,5C000000,-0724,0836,12137,025.6,045.4,0.454,739.2,01.18,0.508
2015-02-16 02:49:00,1853E-3,5C000000,-0724,0835,12143,025.6,045.4,0.454,739.2,01.18,0.508
2015-02-16 02:50:00,1968E-3,5C000000,-0724,0836,12217,025.6,045.4,0.454,739.2,01.18,0.508
2015-02-16 02:51:00,1933E-3,5C000000,-0724,0836,12159,025.5,045.4,0.454,739.2,01.18,0.508
2015-02-16 02:52:00,2184E-3,5C000000,-0724,0836,11880,025.6,045.4,0.454,739.2,01.18,0.508
2015-02-16 02:53:00,2076E-3,5C000000,-0724,0836,12081,025.6,045.4,0.454,739.2,01.18,0.508
2015-02-16 02:54:00,2118E-3,5C000000,-0724,0835,11978,025.6,045.4,0.454,739.3,01.18,0.508
2015-02-16 02:55:00,2028E-3,5C000000,-0724,0836,12134,025.6,045.4,0.454,739.2,01.18,0.508
2015-02-16 02:56:00,1807E-3,5C000000,-0724,0836,12044,025.7,045.4,0.454,739.2,01.18,0.508
2015-02-16 02:57:00,2085E-3,5C000000,-0724,0836,12189,025.8,045.4,0.454,739.2,01.18,0.508
2015-02-16 02:58:00,2008E-3,5C000000,-0724,0837,12295,026.0,045.4,0.454,739.2,01.18,0.508
2015-02-16 02:59:00,1914E-3,5C000000,-0724,0835,12159,026.1,045.4,0.454,739.2,01.18,0.508
2015-02-16 03:00:00,1984E-3,5C000000,-0724,0837,12247,026.1,045.4,0.454,739.2,01.18,0.508
2015-02-16 03:01:00,1943E-3,5C000000,-0724,0835,12130,026.2,045.4,0.454,739.3,01.18,0.508
2015-02-16 03:02:00,2013E-3,5C000000,-0724,0835,11980,026.3,045.4,0.453,739.2,01.18,0.508
2015-02-16 03:03:00,1976E-3,5C000000,-0724,0836,12098,026.4,045.4,0.453,739.2,01.18,0.508
2015-02-16 03:04:00,1936E-3,5C000000,-0724,0836,12130,026.5,045.4,0.453,739.2,01.18,0.508
2015-02-16 03:05:00,1888E-3,5C000000,-0724,0836,12288,026.5,045.4,0.453,739.2,01.18,0.508
2015-02-16 03:06:00,2128E-3,5C000000,-0724,0837,12067,026.6,045.4,0.453,739.2,01.18,0.508
2015-02-16 03:07:00,2099E-3,5C000000,-0724,0837,12083,026.6,045.4,0.453,739.2,01.18,0.508
2015-02-16 03:08:00,2011E-3,5C000000,-0724,0837,12275,026.7,045.4,0.453,739.2,01.18,0.508
2015-02-16 03:09:00,1972E-3,5C000000,-0724,0836,12087,026.8,045.4,0.453,739.2,01.18,0.508
2015-02-16 03:10:00,1891E-3,5C000000,-0724,0836,12155,026.8,045.4,0.453,739.2,01.18,0.508
2015-02-16 03:11:00,1943E-3,5C000000,-0724,0837,12225,026.9,045.4,0.453,739.2,01.18,0.508
2015-02-16 03:12:00,1932E-3,5C000000,-0724,0836,12060,026.9,045.4,0.453,739.2,01.18,0.508
2015-02-16 03:13:00,1955E-3,5C000000,-0724,0836,12110,027.0,045.4,0.452,739.2,01.18,0.508
2015-02-16 03:14:00,1910E-3,5C000000,-0724,0837,12079,027.0,045.4,0.452,739.2,01.18,0.508
2015-02-16 03:15:00,1895E-3,5C000000,-0724,0837,12171,027.0,045.4,0.452,739.2,01.18,0.508
2015-02-16 03:16:00,1916E-3,5C000000,-0724,0836,12175,027.0,045.4,0.452,739.2,01.18,0.508
2015-02-16 03:17:00,2135E-3,5C000000,-0724,0837,12112,027.1,045.4,0.452,739.2,01.18,0.508
2015-02-16 03:18:00,1981E-3,5C000000,-0724,0837,11958,027.0,045.4,0.452,739.2,01.18,0.508
2015-02-16 03:19:00,1944E-3,5C000000,-0724,0837,12122,027.1,045.4,0.452,739.2,01.18,0.508
2015-02-16 03:20:00,2005E-3,5C000000,-0724,0837,12012,027.1,045.4,0.452,739.2,01.18,0.508
2015-02-16 03:21:00,2015E-3,5C000000,-0724,0837,12107,027.0,045.4,0.452,739.2,01.18,0.508
2015-02-16 03:22:00,1933E-3,5C000000,-0724,0837,12125,026.9,045.4,0.452,739.2,01.18,0.508
2015-02-16 03:23:00,1967E-3,5C000000,-0724,0837,12156,026.8,045.4,0.452,739.2,01.18,0.508
2015-02-16 03:24:00,2021E-3,5C000000,-0724,0837,12225,026.7,045.4,0.452,739.2,01.18,0.508
2015-02-16 03:25:00,1887E-3,5C000000,-0724,0837,12048,026.5,045.4,0.452,739.2,01.18,0.508
2015-02-16 03:26:00,2065E-3,5C000000,-0724,0837,12126,026.5,045.4,0.452,739.2,01.18,0.508
2015-02-16 03:27:00,2046E-3,5C000000,-0724,0836,12152,026.4,045.4,0.452,739.2,01.18,0.508
2015-02-16 03:28:00,2072E-3,5C000000,-0724,0837,12059,026.3,045.4,0.453,739.1,01.18,0.508
2015-02-16 03:29:00,1937E-3,5C000000,-0724,0837,12101,026.2,045.4,0.453,739.1,01.18,0.508
2015-02-16 03:30:00,2112E-3,5C000000,-0724,0836,12005,026.1,045.4,0.453,739.1,01.18,0.508
2015-02-16 03:31:00,2041E-3,5C000000,-0724,0837,12265,026.1,045.4,0.453,739.1,01.18,0.508
2015-02-16 03:32:00,2014E-3,5C000000,-0724,0836,12245,026.0,045.4,0.453,739.1,01.18,0.508
2015-02-16 03:33:00,2052E-3,5C000000,-0724,0836,12215,026.0,045.4,0.454,739.1,01.18,0.508
2015-02-16 03:34:00,1999E-3,5C000000,-0724,0835,12197,025.9,045.4,0.453,739.1,01.18,0.508
2015-02-16 03:35:00,2097E-3,5C000000,-0724,0836,12288,025.9,045.4,0.454,739.1,01.18,0.508
2015-02-16 03:36:00,2029E-3,5C000000,-0724,0837,12107,025.8,045.4,0.454,739.1,01.18,0.508
2015-02-16 03:37:00,1931E-3,5C000000,-0724,0836,12099,025.8,045.4,0.454,739.1,01.18,0.508
2015-02-16 03:38:00,2040E-3,5C000000,-0724,0837,12059,025.8,045.4,0.454,739.1,01.18,0.508
2015-02-16 03:39:00,1996E-3,5C000000,-0724,0836,12208,025.7,045.4,0.454,739.1,01.18,0.508
2015-02-16 03:40:00,2044E-3,5C000000,-0724,0836,12126,025.7,045.4,0.454,739.0,01.18,0.508
2015-02-16 03:41:00,2012E-3,5C000000,-0724,0836,12170,025.7,045.4,0.454,739.0,01.18,0.508
2015-02-16 03:42:00,1983E-3,5C000000,-0724,0838,12241,025.7,045.4,0.454,739.0,01.18,0.508
2015-02-16 03:43:00,1900E-3,5C000000,-0724,0838,12135,025.6,045.4,0.454,739.0,01.18,0.508
2015-02-16 03:44:00,2125E-3,5C000000,-0724,0836,12095,025.6,045.4,0.454,739.0,01.18,0.508
2015-02-16 03:45:00,1960E-3,5C000000,-0724,0837,12107,025.6,045.4,0.454,739.0,01.18,0.508
2015-02-16 03:46:00,1968E-3,5C000000,-0724,0837,12125,025.6,045.4,0.454,739.0,01.18,0.508
2015-02-16 03:47:00,1946E-3,5C000000,-0724,0836,11958,025.6,045.4,0.454,739.0,01.18,0.508
2015-02-16 03:48:00,1865E-3,5C000000,-0724,0837,12106,025.5,045.4,0.454,739.0,01.18,0.508
2015-02-16 03:49:00,1981E-3,5C000000,-0724,0837,12130,025.5,045.4,0.454,739.0,01.18,0.508
2015-02-16 03:50:00,1996E-3,5C000000,-0724,0837,12148,025.5,045.4,0.454,739.0,01.18,0.508
2015-02-16 03:51:00,1880E-3,5C000000,-0724,0837,12017,025.5,045.4,0.454,739.1,01.18,0.508
2015-02-16 03:52:00,1928E-3,5C000000,-0724,0836,11811,025.5,045.4,0.455,739.1,01.18,0.508
2015-02-16 03:53:00,1965E-3,5C000000,-0724,0837,12085,025.5,045.4,0.455,739.1,01.18,0.508
2015-02-16 03:54:00,2013E-3,5C000000,-0724,0838,12175,025.4,045.4,0.455,739.1,01.18,0.508
2015-02-16 03:55:00,2006E-3,5C000000,-0724,0836,12159,025.4,045.4,0.455,739.1,01.18,0.508
2015-02-16 03:56:00,1994E-3,5C000000,-0724,0837,12126,025.4,045.4,0.454,739.1,01.18,0.508
2015-02-16 03:57:00,2017E-3,5C000000,-0724,0836,12145,025.5,045.4,0.454,739.1,01.18,0.508
2015-02-16 03:58:00,1874E-3,5C000000,-0724,0837,12109,025.6,045.4,0.455,739.2,01.18,0.508
2015-02-16 03:59:00,1951E-3,5C000000,-0724,0837,12093,025.7,045.4,0.454,739.2,01.18,0.508
2015-02-16 04:00:00,1797E-3,5C000000,-0724,0837,12004,025.8,045.4,0.454,739.1,01.18,0.508
2015-02-16 04:01:00,2061E-3,5C000000,-0724,0837,12035,025.9,045.4,0.454,739.1,01.18,0.508
2015-02-16 04:02:00,2021E-3,5C000000,-0724,0836,12029,026.0,045.4,0.454,739.1,01.18,0.508
2015-02-16 04:03:00,1999E-3,5C000000,-0724,0836,12076,026.1,045.4,0.454,739.2,01.18,0.508
2015-02-16 04:04:00,1971E-3,5C000000,-0724,0836,12232,026.2,045.4,0.454,739.2,01.18,0.508
2015-02-16 04:05:00,1947E-3,5C000000,-0724,0837,12075,026.3,045.4,0.453,739.1,01.18,0.508
2015-02-16 04:06:00,1995E-3,5C000000,-0724,0836,12162,026.3,045.4,0.453,739.1,01.18,0.508
2015-02-16 04:07:00,2006E-3,5C000000,-0724,0836,12085,026.4,045.4,0.453,739.2,01.18,0.508
2015-02-16 04:08:00,2091E-3,5C000000,-0724,0837,11942,026.5,045.4,0.453,739.1,01.18,0.508
2015-02-16 04:09:00,1894E-3,5C000000,-0724,0836,12162,026.5,045.4,0.453,739.2,01.18,0.508
2015-02-16 04:10:00,1882E-3,5C000000,-0724,0836,12043,026.6,045.4,0.453,739.1,01.18,0.508
2015-02-16 04:11:00,1984E-3,5C000000,-0724,0836,11893,026.7,045.4,0.452,739.2,01.18,0.508
2015-02-16 04:12:00,2146E-3,5C000000,-0724,0836,12144,026.7,045.4,0.452,739.2,01.18,0.508
2015-02-16 04:13:00,1901E-3,5C000000,-0724,0836,12161,026.8,045.4,0.452,739.2,01.18,0.508
2015-02-16 04:14:00,1982E-3,5C000000,-0724,0837,12239,026.8,045.4,0.452,739.2,01.18,0.508
2015-02-16 04:15:00,2052E-3,5C000000,-0724,0836,12240,026.8,045.4,0.452,739.2,01.18,0.508
2015-02-16 04:16:00,2089E-3,5C000000,-0724,0837,12097,026.9,045.4,0.452,739.2,01.18,0.508
2015-02-16 04:17:00,2010E-3,5C000000,-0724,0837,12236,026.9,045.4,0.452,739.2,01.18,0.508
2015-02-16 04:18:00,2020E-3,5C000000,-0724,0836,12392,026.9,045.4,0.452,739.2,01.18,0.508
2015-02-16 04:19:00,2012E-3,5C000000,-0724,0837,11868,026.9,045.4,0.452,739.2,01.18,0.508